Find Starlink 36925

NORAD ID: 68042 Int'l Des: 2026-041 Owner: SPXS Country: US Constellation: starlink operational
LEOCIRCULAR

实时位置

正在加载3D地球...

关于 Starlink 36925

正在加载描述...

即将过境

Passes for default location (London). Set your location on the main map for personalized predictions.

高度历史

Loading altitude history...

两行轨道根数

1 68042U 26041C 26106.91668981 .00016048 00000-0 29607-3 0 9992
2 68042 53.1599 232.8544 0000854 60.7763 297.0943 15.49302778 6048
Epoch: Apr 16, 2026 • Age: 5 hours

当前状态

高度 420.5 km
速度 7.66 km/s
星下点 30.79°N, 131.31°E
发射日期 Mar 2, 2026
运行时间 0.1 years
类型 internet

技术详情

分类 Payload
质量 575.00 kg
干质量 530.00 kg
总质量 575.00 kg
长度 0.30 m
直径 4.10 m
跨度 29.00 m
形状 Box + pan
制造商 SPXS
平台类型 Starlink V2MO
阶段状态 In Orbit
所有者/国家 SPXS/US

Most Searched